Tacoma, WA
on Sunday, January 6, 2013

Sunday
Previous Day Next Day
Daily Summary
 ActualAverage (KSEA)Record (KSEA)
Temperature
Mean Temperature °F 41°F  
Max Temperature 46°F 46°F 57°F (2003)
Min Temperature 35°F 37°F 14°F (1982)
Degree Days
Heating Degree Days 24 24  
Month to date heating degree days 144  
Since 1 July heating degree days 2082  
Cooling Degree Days 0 0  
Month to date cooling degree days 0  
Year to date cooling degree days 0  
Moisture
Dew Point 39°F   
Average Humidity 94    
Maximum Humidity 100    
Minimum Humidity 77    
Precipitation
Precipitation 0.12 in 0.19 in 1.22 in (1956)
Month to date precipitation 1.11  
Year to date precipitation 1.11  
Snow
Snow 0.00 in in 2.00 in (1965)
Month to date snowfall  
Since 1 July snowfall  
Snow Depth in   
Wind
Wind Speed 6 mph   
Max Wind Speed 8 mph   
Max Gust Speed mph   
Visibility 10 miles   
Events Rain   

Key: T is trace of precipitation, MM is missing value
Source: NWS Daily Summary
Time(PST)TemperatureDew PointHumidity Pressure Visibility Wind DirectionWind SpeedGust SpeedPrecipitationEvents Conditions
12:38 AM 39.2°F 39.2°F 100% 30.16 in 10.0 miles SSW 8.1 mph - N/A   Mostly Cloudy
12:58 AM 36.9°F 36.5°F 99% 30.18 in 10.0 miles South 8.1 mph - N/A   Scattered Clouds
1:58 AM 35.8°F 35.4°F 99% 30.19 in 10.0 miles South 8.1 mph - N/A   Scattered Clouds
2:58 AM 36.9°F 36.7°F 99% 30.20 in 10.0 miles SW 4.6 mph - N/A   Mostly Cloudy
3:58 AM 37.0°F 36.9°F 99% 30.18 in 10.0 miles South 5.8 mph - N/A   Overcast
4:58 AM 37.0°F 36.7°F 99% 30.16 in 10.0 miles South 4.6 mph - N/A   Mostly Cloudy
5:43 AM 37.4°F 37.4°F 100% 30.16 in 10.0 miles NNW 3.5 mph - N/A   Overcast
5:58 AM 38.3°F 38.1°F 99% 30.18 in 10.0 miles SW 1.2 mph - N/A   Overcast
6:08 AM 39.2°F 37.4°F 93% 30.16 in 10.0 miles South 2.3 mph - N/A   Overcast
6:23 AM 37.4°F 37.4°F 100% 30.16 in 10.0 miles South 3.5 mph - N/A   Overcast
6:28 AM 37.4°F 37.4°F 100% 30.17 in 10.0 miles South 2.3 mph - N/A   Overcast
6:43 AM 39.2°F 37.4°F 93% 30.16 in 10.0 miles South 4.6 mph - N/A   Overcast
6:58 AM 38.7°F 38.5°F 99% 30.19 in 10.0 miles South 4.6 mph - N/A   Overcast
7:19 AM 37.4°F 37.4°F 100% 30.16 in 10.0 miles South 4.6 mph - N/A Rain Light Rain
7:30 AM 39.2°F 37.4°F 93% 30.16 in 10.0 miles South 5.8 mph - N/A   Overcast
7:40 AM 39.2°F 37.4°F 93% 30.16 in 10.0 miles South 6.9 mph - N/A Rain Light Rain
7:50 AM 39.2°F 37.4°F 93% 30.16 in 10.0 miles South 8.1 mph - N/A Rain Light Rain
7:53 AM 39.2°F 37.4°F 93% 30.16 in 10.0 miles South 8.1 mph - N/A   Overcast
7:58 AM 38.3°F 38.1°F 99% 30.19 in 10.0 miles South 6.9 mph - 0.00 in   Overcast
8:23 AM 39.2°F 39.2°F 100% 30.18 in 10.0 miles South 5.8 mph - N/A Rain Light Rain
8:32 AM 39.2°F 39.2°F 100% 30.18 in 10.0 miles West 6.9 mph - N/A   Mostly Cloudy
8:42 AM 39.2°F 39.2°F 100% 30.19 in 10.0 miles SSW 5.8 mph - N/A   Overcast
8:43 AM 39.2°F 39.2°F 100% 30.19 in 10.0 miles SSW 5.8 mph - N/A Rain Light Rain
8:48 AM 39.2°F 39.2°F 100% 30.19 in 10.0 miles South 4.6 mph - N/A Rain Light Rain
8:53 AM 39.2°F 39.2°F 100% 30.19 in 10.0 miles South 5.8 mph - N/A Rain Light Rain
8:57 AM 39.2°F 39.2°F 100% 30.19 in 10.0 miles South 4.6 mph - N/A   Overcast
8:58 AM 39.2°F 39.2°F 100% 30.21 in 10.0 miles South 4.6 mph - 0.00 in   Overcast
9:03 AM 39.2°F 39.2°F 100% 30.19 in 10.0 miles South 5.8 mph - N/A   Overcast
9:09 AM 41.0°F 41.0°F 100% 30.18 in 10.0 miles South 5.8 mph - N/A Rain Light Rain
9:19 AM 41.0°F 41.0°F 100% 30.18 in 10.0 miles South 6.9 mph - N/A Rain Light Rain
9:25 AM 42.8°F 41.0°F 93% 30.18 in 10.0 miles South 5.8 mph - N/A   Overcast
9:30 AM 42.8°F 41.0°F 93% 30.18 in 10.0 miles South 4.6 mph - N/A   Mostly Cloudy
9:58 AM 42.4°F 41.0°F 95% 30.21 in 10.0 miles South 5.8 mph - 0.00 in   Overcast
10:58 AM 44.6°F 40.8°F 87% 30.20 in 10.0 miles South 8.1 mph - N/A   Mostly Cloudy
11:58 AM 45.1°F 40.8°F 85% 30.18 in 10.0 miles SSW 8.1 mph - N/A   Overcast
12:42 PM 46.4°F 41.0°F 81% 30.15 in 10.0 miles SW 4.6 mph - N/A Rain Light Rain
12:51 PM 46.4°F 41.0°F 81% 30.14 in 10.0 miles WSW 5.8 mph - N/A   Overcast
12:58 PM 45.7°F 41.0°F 84% 30.16 in 10.0 miles WSW 4.6 mph - 0.00 in   Overcast
1:58 PM 46.4°F 40.1°F 79% 30.14 in 10.0 miles SW 5.8 mph - N/A   Mostly Cloudy
2:58 PM 45.9°F 40.1°F 80% 30.14 in 10.0 miles SW 4.6 mph - N/A   Overcast
3:58 PM 45.5°F 39.7°F 80% 30.12 in 10.0 miles SW 5.8 mph - N/A   Overcast
4:58 PM 45.1°F 38.5°F 77% 30.11 in 10.0 miles SSW 6.9 mph - N/A   Overcast
5:45 PM 44.6°F 39.2°F 81% 30.09 in 10.0 miles SW 8.1 mph - N/A Rain Light Rain
5:58 PM 43.9°F 39.2°F 84% 30.10 in 10.0 miles SW 6.9 mph - 0.00 in Rain Light Rain
6:58 PM 42.1°F 39.7°F 91% 30.09 in 10.0 miles South 5.8 mph - 0.01 in Rain Light Rain
7:58 PM 41.7°F 40.3°F 95% 30.08 in 10.0 miles SSE 2.3 mph - 0.01 in Rain Light Rain
8:58 PM 41.0°F 40.8°F 99% 30.07 in 10.0 miles SE 2.3 mph - 0.03 in Rain Light Rain
9:28 PM 41.0°F 41.0°F 100% 30.03 in 10.0 miles SSE 3.5 mph - N/A Rain Light Rain
9:58 PM 41.0°F 40.8°F 99% 30.05 in 10.0 miles South 4.6 mph - 0.03 in Rain Light Rain
10:58 PM 40.8°F 40.6°F 99% 30.02 in 10.0 miles South 8.1 mph - 0.03 in Rain Light Rain
11:58 PM 41.2°F 41.0°F 99% 30.00 in 10.0 miles SSW 2.3 mph - 0.01 in   Light Drizzle
Moon Phase
Jan. 06 Jan. 11 Jan. 18 Jan. 26 Feb. 03
Sunrise:07:55 AM (PST) Moon Rise:02:07 AM (PST)1/6
Sunset:04:36 PM (PST) Moon Set:12:14 PM (PST)1/6

Copyright © 2014 The Weather Underground, Inc.